Time,TemperatureF,DewpointF,PressureIn,WindDirection,WindDirectionDegrees,WindSpeedMPH,WindSpeedGustMPH,Humidity,HourlyPrecipIn,Conditions,Clouds,dailyrainin,SoftwareType,DateUTC
2013-03-11 00:00:00,53.0,32.8,29.86,SSE,157,10.0,27.0,46,0.00,,,-99.99,WeatherLink 5.6,2013-03-11 04:00:00,
2013-03-11 00:30:00,52.7,32.5,29.85,SSE,157,12.0,29.0,46,0.00,,,-99.99,WeatherLink 5.6,2013-03-11 04:30:00,
2013-03-11 01:00:00,52.5,32.3,29.85,SSE,157,10.0,26.0,46,0.00,,,-99.99,WeatherLink 5.6,2013-03-11 05:00:00,
2013-03-11 01:30:00,52.3,33.2,29.83,SSE,157,14.0,29.0,48,0.00,,,-99.99,WeatherLink 5.6,2013-03-11 05:30:00,
2013-03-11 02:00:00,51.9,32.8,29.83,SSE,157,14.0,31.0,48,0.00,,,-99.99,WeatherLink 5.6,2013-03-11 06:00:00,
2013-03-11 02:30:00,51.7,33.1,29.80,SSE,157,15.0,31.0,49,0.00,,,-99.99,WeatherLink 5.6,2013-03-11 06:30:00,
2013-03-11 03:00:00,51.5,33.5,29.80,SSE,157,15.0,29.0,50,0.00,,,-99.99,WeatherLink 5.6,2013-03-11 07:00:00,
2013-03-11 03:30:00,51.2,34.2,29.78,SSE,157,15.0,29.0,52,0.00,,,-99.99,WeatherLink 5.6,2013-03-11 07:30:00,
2013-03-11 04:00:00,51.4,34.3,29.79,South,180,15.0,29.0,52,0.00,,,-99.99,WeatherLink 5.6,2013-03-11 08:00:00,
2013-03-11 04:10:00,50.4,34.8,29.74,SSE,157,9.0,23.0,55,0.00,,,-99.99,WeatherLink 5.6,2013-03-11 08:10:00,
2013-03-11 04:40:00,50.6,35.5,29.72,South,180,13.0,32.0,56,0.00,,,-99.99,WeatherLink 5.6,2013-03-11 08:40:00,
2013-03-11 05:10:00,50.6,35.9,29.72,South,180,19.0,41.0,57,0.00,,,-99.99,WeatherLink 5.6,2013-03-11 09:10:00,
2013-03-11 05:40:00,50.1,37.2,29.71,South,180,18.0,33.0,61,0.00,,,-99.99,WeatherLink 5.6,2013-03-11 09:40:00,
2013-03-11 06:10:00,49.9,39.0,29.71,SSE,157,15.0,31.0,66,0.00,,,-99.99,WeatherLink 5.6,2013-03-11 10:10:00,
2013-03-11 06:40:00,50.1,40.3,29.73,South,180,14.0,30.0,69,0.00,,,-99.99,WeatherLink 5.6,2013-03-11 10:40:00,
2013-03-11 07:10:00,49.9,40.5,29.73,SSE,157,12.0,30.0,70,0.00,,,-99.99,WeatherLink 5.6,2013-03-11 11:10:00,
2013-03-11 07:40:00,50.1,41.4,29.75,South,180,12.0,28.0,72,0.00,,,-99.99,WeatherLink 5.6,2013-03-11 11:40:00,
2013-03-11 08:10:00,50.4,42.4,29.76,South,180,15.0,31.0,74,0.00,,,-99.99,WeatherLink 5.6,2013-03-11 12:10:00,
2013-03-11 08:40:00,50.8,43.2,29.76,South,180,16.0,32.0,75,0.00,,,-99.99,WeatherLink 5.6,2013-03-11 12:40:00,
2013-03-11 09:10:00,51.2,43.5,29.76,SSE,157,17.0,35.0,75,0.00,,,-99.99,WeatherLink 5.6,2013-03-11 13:10:00,
2013-03-11 09:40:00,51.4,44.1,29.76,SSE,157,12.0,27.0,76,0.00,,,-99.99,WeatherLink 5.6,2013-03-11 13:40:00,
2013-03-11 10:10:00,51.9,44.6,29.75,SSE,157,13.0,28.0,76,0.00,,,-99.99,WeatherLink 5.6,2013-03-11 14:10:00,
2013-03-11 10:40:00,52.3,44.6,29.72,SSE,157,13.0,36.0,75,0.00,,,-99.99,WeatherLink 5.6,2013-03-11 14:40:00,
2013-03-11 11:10:00,52.7,45.0,29.71,SSE,157,17.0,38.0,75,0.00,,,-99.99,WeatherLink 5.6,2013-03-11 15:10:00,
2013-03-11 11:40:00,53.7,45.6,29.70,SSE,157,12.0,27.0,74,0.00,,,-99.99,WeatherLink 5.6,2013-03-11 15:40:00,
2013-03-11 12:10:00,54.2,45.7,29.70,South,180,14.0,41.0,73,0.00,,,-99.99,WeatherLink 5.6,2013-03-11 16:10:00,
2013-03-11 12:40:00,55.1,46.2,29.70,South,180,17.0,38.0,72,0.00,,,-99.99,WeatherLink 5.6,2013-03-11 16:40:00,
2013-03-11 13:10:00,54.7,45.8,29.71,South,180,18.0,37.0,72,0.00,,,-99.99,WeatherLink 5.6,2013-03-11 17:10:00,
2013-03-11 13:40:00,54.7,46.2,29.69,South,180,15.0,33.0,73,0.00,,,-99.99,WeatherLink 5.6,2013-03-11 17:40:00,
2013-03-11 14:10:00,55.1,46.6,29.67,South,180,16.0,36.0,73,0.00,,,-99.99,WeatherLink 5.6,2013-03-11 18:10:00,
2013-03-11 14:40:00,55.5,46.6,29.64,South,180,15.0,37.0,72,0.00,,,-99.99,WeatherLink 5.6,2013-03-11 18:40:00,
2013-03-11 15:10:00,55.8,46.9,29.64,South,180,16.0,38.0,72,0.00,,,-99.99,WeatherLink 5.6,2013-03-11 19:10:00,
2013-03-11 15:40:00,55.4,46.5,29.62,South,180,15.0,39.0,72,0.00,,,-99.99,WeatherLink 5.6,2013-03-11 19:40:00,
2013-03-11 16:10:00,54.8,46.7,29.63,South,180,14.0,31.0,74,0.00,,,-99.99,WeatherLink 5.6,2013-03-11 20:10:00,
2013-03-11 16:40:00,54.6,46.5,29.61,South,180,14.0,33.0,74,0.00,,,-99.99,WeatherLink 5.6,2013-03-11 20:40:00,
2013-03-11 17:10:00,52.8,46.8,29.63,South,180,14.0,35.0,80,0.00,,,-99.99,WeatherLink 5.6,2013-03-11 21:10:00,
2013-03-11 17:40:00,49.9,46.5,29.66,South,180,13.0,29.0,88,0.05,,,-99.99,WeatherLink 5.6,2013-03-11 21:40:00,
2013-03-11 18:10:00,49.2,46.7,29.67,South,180,13.0,29.0,91,0.14,,,-99.99,WeatherLink 5.6,2013-03-11 22:10:00,
2013-03-11 18:40:00,48.8,46.6,29.68,South,180,14.0,28.0,92,0.11,,,-99.99,WeatherLink 5.6,2013-03-11 22:40:00,
2013-03-11 19:10:00,48.7,46.5,29.68,South,180,10.0,23.0,92,0.04,,,-99.99,WeatherLink 5.6,2013-03-11 23:10:00,
2013-03-11 19:40:00,48.6,46.4,29.69,South,180,10.0,22.0,92,0.05,,,-99.99,WeatherLink 5.6,2013-03-11 23:40:00,
2013-03-11 20:10:00,48.4,46.2,29.69,South,180,11.0,25.0,92,0.07,,,-99.99,WeatherLink 5.6,2013-03-12 00:10:00,
2013-03-11 20:40:00,47.6,46.0,29.63,South,180,14.0,30.0,94,0.10,,,-99.99,WeatherLink 5.6,2013-03-12 00:40:00,
2013-03-11 22:00:00,47.6,46.0,29.66,SSE,157,17.0,34.0,94,0.10,,,-99.99,WeatherLink 5.6,2013-03-12 02:00:00,
2013-03-11 22:30:00,47.4,46.0,29.66,South,180,9.0,21.0,95,0.04,,,-99.99,WeatherLink 5.6,2013-03-12 02:30:00,
2013-03-11 23:00:00,47.4,46.0,29.66,South,180,11.0,21.0,95,0.01,,,-99.99,WeatherLink 5.6,2013-03-12 03:00:00,
2013-03-11 23:30:00,47.4,46.0,29.66,South,180,8.0,19.0,95,0.01,,,-99.99,WeatherLink 5.6,2013-03-12 03:30:00,